Location: Three Oaks Observatory
(31.1535°N, 83.5955°W)
Time: 07:22:37
(UTC-05:00)

NO-84 - Pass Details

Date: 26 October 2019
Orbit: 329 x 505 km, 55.0° (Epoch: 20 November)

Event Time Altitude Azimuth Distance (km) Brightness Sun altitude
Rises 20:32:27 0° 216° (SW) 2,273 ? -22.2°
Reaches altitude 10° 20:34:26 10° 214° (SW) 1,452 ? -22.7°
Enters shadow 20:36:12 30° 209° (SSW) 769 ? -23.0°
